Simultaneous Nadir Overpasses (SNOs) Predictions

Prediction of SNOs between AURA and NPP Satellite Orbit:

Table of predicted SNOs for the next 14.0 days since TLE Epoch: 5/24/2015
Index Date (AURA) Time (AURA) Lat,Lon (AURA) SZA (AURA ) Date (NPP) Time (NPP) Lat,Lon (NPP) SZA (NPP ) Distance(km) Time Diff (sec)
1 05/25/2015 00:27:29 -71.33,-135.58 98.76 05/25/2015 00:26:15 -71.58,-136.91 98.54 54.37 74
2 05/25/2015 01:14:30 78.50, 52.33 73.14 05/25/2015 01:14:31 78.50, 52.23 73.16 2.21 1
3 05/25/2015 02:01:07 -81.59, -79.52 116.33 05/25/2015 02:02:20 -80.93, -80.54 116.65 74.97 73
4 05/27/2015 16:41:33 -78.31, -0.40 107.05 05/27/2015 16:40:46 -78.31, -0.39 107.02 0.20 47
5 05/27/2015 17:30:49 78.72, 169.35 72.41 05/27/2015 17:31:20 78.71, 169.30 72.40 1.26 31
6 05/30/2015
